Blackwell, OK

7:57 PM CST on November 18, 2017 (GMT -0600)
Blackwell

Weather History for KBKN - January, 2014

Change the Weather History Date:

Monday, January 27, 2014

  Actual Average (KPNC) Record (KPNC)
Temperature  
Mean Temperature 24 °F -  
Max Temperature 32 °F 49 °F 75 °F (2015)
Min Temperature 14 °F 26 °F - (2000)
Degree Days  
Heating Degree Days 42    
Moisture  
Dew Point -8 °F    
Average Humidity 30    
Maximum Humidity 79    
Minimum Humidity 23    
Precipitation  
Precipitation 0.00 in - - ()
Sea Level Pressure  
Sea Level Pressure 30.40 in    
Wind  
Wind Speed 22 mph (NNE)    
Max Wind Speed 32 mph    
Max Gust Speed 43 mph    
Visibility 10 miles    
Events Rain , Snow    
Averages and records for this station are not official NWS values.
T = Trace of Precipitation, MM = Missing Value Source: NWS Daily Summary

Daily Weather History Graph

Daily Weather History Graph

Search for Another Location

Airport or City:

Trip Planner

Search our weather history database for the weather conditions in past years. The results will help you decide how hot, cold, wet, or windy it might be!

Date:

Astronomy

Jan. 27, 2014 Rise Set
Actual Time 7:35 AM CST 5:49 PM CST
Civil Twilight 7:07 AM CST 6:17 PM CST
Nautical Twilight 6:36 AM CST 6:48 PM CST
Astronomical Twilight 6:05 AM CST 7:19 PM CST
Moon 4:16 AM CST (1/27) 2:38 PM CST (1/27)
Length of Visible Light 11h 09m
Length of Day
10h 14m
Waning Crescent, 14% of the Moon is Illuminated
Jan 27
Waning Crescent
Jan 30
New
Feb 6
First Quarter
Feb 14
Full
Feb 22
Last Quarter

Hourly Weather History & Observations

Time (CST) Temp. Windchill Dew Point Humidity Pressure Visibility Wind Dir Wind Speed Gust Speed Precip Events Conditions
12:15 AM 32.0 °F 17.2 °F 5.0 °F 32% 30.14 in 10.0 mi North 32.2 mph 42.6 mph N/A Rain Light Rain
12:35 AM 30.2 °F 14.7 °F 1.4 °F 29% 30.17 in 10.0 mi North 32.2 mph 41.4 mph N/A   Overcast
12:55 AM 28.4 °F 13.5 °F 1.4 °F 31% 30.19 in 10.0 mi North 26.5 mph 39.1 mph N/A   Overcast
1:15 AM 28.4 °F 14.4 °F 1.4 °F 31% 30.20 in 10.0 mi NNE 23.0 mph 29.9 mph N/A   Overcast
1:35 AM 28.4 °F 12.7 °F -2.2 °F 27% 30.21 in 10.0 mi North 29.9 mph 41.4 mph N/A   Overcast
1:55 AM 26.6 °F 10.8 °F -2.2 °F 29% 30.22 in 10.0 mi NNE 27.6 mph 40.3 mph N/A   Overcast
2:15 AM 26.6 °F 11.4 °F -4.0 °F 26% 30.25 in 10.0 mi NNE 25.3 mph 35.7 mph N/A   Overcast
2:55 AM 24.8 °F 9.3 °F -5.8 °F 26% 30.29 in 10.0 mi NNE 24.2 mph 38.0 mph N/A   Overcast
3:15 AM 24.8 °F 10.3 °F -4.0 °F 28% 30.31 in 10.0 mi North 20.7 mph 35.7 mph N/A   Overcast
3:35 AM 23.0 °F 6.9 °F -5.8 °F 28% 30.31 in 10.0 mi NNE 24.2 mph 34.5 mph N/A   Overcast
3:55 AM 23.0 °F 7.2 °F -5.8 °F 28% 30.32 in 10.0 mi NNE 23.0 mph 28.8 mph N/A   Overcast
4:15 AM 23.0 °F 5.7 °F -4.0 °F 31% 30.33 in 10.0 mi North 28.8 mph 35.7 mph N/A   Overcast
4:35 AM 23.0 °F 5.7 °F -4.0 °F 31% 30.33 in 10.0 mi North 28.8 mph 34.5 mph N/A   Overcast
4:55 AM 21.2 °F 4.2 °F -7.6 °F 28% 30.34 in 10.0 mi North 25.3 mph 32.2 mph N/A   Overcast
5:15 AM 19.4 °F 0.8 °F -9.4 °F 28% 30.35 in 10.0 mi North 28.8 mph 35.7 mph N/A Snow Light Snow
5:35 AM 19.4 °F 1.4 °F -7.6 °F 30% 30.36 in 10.0 mi North 26.5 mph 31.1 mph N/A Snow Light Snow
5:55 AM 19.4 °F 3.2 °F -9.4 °F 28% 30.36 in 10.0 mi North 20.7 mph 31.1 mph N/A   Overcast
6:15 AM 19.4 °F 1.8 °F -11.2 °F 25% 30.37 in 10.0 mi North 25.3 mph 32.2 mph N/A   Overcast
6:35 AM 19.4 °F 3.6 °F -9.4 °F 28% 30.38 in 10.0 mi North 19.6 mph 27.6 mph N/A   Overcast
6:55 AM 17.6 °F -0.3 °F -13.0 °F 25% 30.39 in 10.0 mi North 24.2 mph 32.2 mph N/A Snow Light Snow
7:15 AM 17.6 °F -0.3 °F - N/A% 30.40 in 10.0 mi North 24.2 mph 31.1 mph N/A   Overcast
7:35 AM 17.6 °F 0.5 °F -11.2 °F 27% 30.42 in 10.0 mi North 21.9 mph 27.6 mph N/A   Overcast
7:55 AM 17.6 °F -0.3 °F -9.4 °F 30% 30.42 in 10.0 mi North 24.2 mph 28.8 mph N/A   Overcast
8:15 AM 17.6 °F 0.9 °F -9.4 °F 30% 30.43 in 10.0 mi North 20.7 mph - N/A   Overcast
8:35 AM 17.6 °F 1.3 °F -9.4 °F 30% 30.45 in 10.0 mi North 19.6 mph - N/A   Overcast
8:55 AM 17.6 °F 0.9 °F -9.4 °F 30% 30.45 in 10.0 mi North 20.7 mph 25.3 mph N/A   Overcast
9:15 AM 17.6 °F 1.3 °F -9.4 °F 30% 30.46 in 10.0 mi North 19.6 mph 24.2 mph N/A   Overcast
9:35 AM 17.6 °F 1.3 °F -9.4 °F 30% 30.46 in 10.0 mi North 19.6 mph - N/A   Overcast
9:55 AM 17.6 °F 0.5 °F -9.4 °F 30% 30.47 in 10.0 mi North 21.9 mph 27.6 mph N/A   Overcast
10:15 AM 17.6 °F 1.7 °F -11.2 °F 27% 30.48 in 10.0 mi NNE 18.4 mph - N/A   Overcast
10:35 AM 17.6 °F 1.3 °F -11.2 °F 27% 30.47 in 10.0 mi North 19.6 mph 24.2 mph N/A   Overcast
10:55 AM 17.6 °F 1.3 °F -13.0 °F 25% 30.48 in 10.0 mi NNE 19.6 mph - N/A   Overcast
11:15 AM 17.6 °F 1.7 °F -13.0 °F 25% 30.48 in 10.0 mi North 18.4 mph - N/A   Overcast
11:35 AM 17.6 °F 2.7 °F -13.0 °F 25% 30.48 in 10.0 mi NNE 16.1 mph 21.9 mph N/A   Overcast
11:55 AM 17.6 °F 2.7 °F -13.0 °F 25% 30.47 in 10.0 mi North 16.1 mph 21.9 mph N/A   Overcast
12:15 PM 19.4 °F 5.0 °F - N/A% 30.47 in 10.0 mi North 16.1 mph 21.9 mph N/A   Overcast
12:35 PM 19.4 °F 5.0 °F -13.0 °F 23% 30.46 in 10.0 mi NNE 16.1 mph - N/A   Overcast
12:55 PM 19.4 °F 5.5 °F -13.0 °F 23% 30.46 in 10.0 mi NNE 15.0 mph - N/A   Overcast
1:15 PM 19.4 °F 6.6 °F -11.2 °F 25% 30.44 in 10.0 mi NNE 12.7 mph 18.4 mph N/A   Overcast
1:35 PM 19.4 °F 6.0 °F - N/A% 30.43 in 10.0 mi North 13.8 mph - N/A   Overcast
1:55 PM 19.4 °F 5.0 °F -11.2 °F 25% 30.42 in 10.0 mi North 16.1 mph - N/A   Overcast
2:15 PM 19.4 °F 6.6 °F -11.2 °F 25% 30.42 in 10.0 mi NNE 12.7 mph 16.1 mph N/A   Overcast
2:35 PM 19.4 °F 6.0 °F -11.2 °F 25% 30.43 in 10.0 mi North 13.8 mph - N/A   Overcast
2:55 PM 19.4 °F 7.9 °F -11.2 °F 25% 30.43 in 10.0 mi North 10.4 mph - N/A   Overcast
3:15 PM 17.6 °F 5.0 °F -11.2 °F 27% 30.43 in 10.0 mi North 11.5 mph - N/A   Mostly Cloudy
3:35 PM 17.6 °F 4.3 °F -11.2 °F 27% 30.42 in 10.0 mi North 12.7 mph 18.4 mph N/A   Overcast
3:55 PM 19.4 °F 6.0 °F -11.2 °F 25% 30.43 in 10.0 mi North 13.8 mph - N/A   Overcast
4:15 PM 17.6 °F 4.3 °F -11.2 °F 27% 30.42 in 10.0 mi North 12.7 mph - N/A   Scattered Clouds
4:35 PM 17.6 °F 2.7 °F -11.2 °F 27% 30.42 in 10.0 mi North 16.1 mph - N/A   Scattered Clouds
4:55 PM 17.6 °F 5.7 °F -9.4 °F 30% 30.42 in 10.0 mi North 10.4 mph - N/A   Scattered Clouds
5:15 PM 19.4 °F 5.5 °F -11.2 °F 25% 30.42 in 10.0 mi North 15.0 mph - N/A   Scattered Clouds
5:35 PM 19.4 °F 7.9 °F -9.4 °F 28% 30.42 in 10.0 mi NNE 10.4 mph - N/A   Overcast
5:55 PM 17.6 °F 5.0 °F -9.4 °F 30% 30.42 in 10.0 mi NNE 11.5 mph - N/A   Overcast
6:15 PM 17.6 °F 4.3 °F -9.4 °F 30% 30.42 in 10.0 mi NNE 12.7 mph 19.6 mph N/A   Overcast
6:35 PM 17.6 °F 4.3 °F -9.4 °F 30% 30.42 in 10.0 mi NNE 12.7 mph - N/A   Overcast
6:55 PM 17.6 °F 5.0 °F -9.4 °F 30% 30.43 in 10.0 mi NNE 11.5 mph - N/A   Overcast
7:15 PM 17.6 °F 5.0 °F -9.4 °F 30% 30.43 in 10.0 mi NNE 11.5 mph 16.1 mph N/A   Overcast
7:35 PM 17.6 °F 5.0 °F -9.4 °F 30% 30.44 in 10.0 mi NNE 11.5 mph - N/A   Overcast
7:55 PM 17.6 °F 3.7 °F -9.4 °F 30% 30.43 in 10.0 mi NNE 13.8 mph - N/A   Overcast
8:15 PM 17.6 °F 4.3 °F -7.6 °F 32% 30.44 in 10.0 mi NNE 12.7 mph - N/A   Overcast
8:35 PM 17.6 °F 4.3 °F -7.6 °F 32% 30.44 in 10.0 mi NNE 12.7 mph - N/A   Overcast
8:55 PM 17.6 °F 3.7 °F -7.6 °F 32% 30.44 in 10.0 mi NNE 13.8 mph - N/A   Overcast
9:15 PM 17.6 °F 4.3 °F -7.6 °F 32% 30.44 in 10.0 mi NNE 12.7 mph - N/A   Overcast
9:35 PM 17.6 °F 5.7 °F -7.6 °F 32% 30.45 in 10.0 mi NNE 10.4 mph - N/A   Overcast
9:55 PM 17.6 °F 6.4 °F -7.6 °F 32% 30.46 in 10.0 mi NNE 9.2 mph - N/A   Overcast
10:15 PM 17.6 °F 6.4 °F -7.6 °F 32% 30.46 in 10.0 mi NNE 9.2 mph - N/A   Overcast
10:35 PM 17.6 °F 5.0 °F -7.6 °F 32% 30.46 in 10.0 mi NNE 11.5 mph - N/A   Overcast
10:55 PM 17.6 °F 5.0 °F -7.6 °F 32% 30.46 in 10.0 mi NNE 11.5 mph - N/A   Overcast
11:15 PM 17.6 °F 5.7 °F -7.6 °F 32% 30.46 in 10.0 mi NNE 10.4 mph - N/A   Overcast
11:35 PM 15.8 °F 0.3 °F 1.4 °F 53% 30.47 in 9.0 mi North 16.1 mph - N/A Rain Light Freezing Rain
11:55 PM 14.0 °F 2.0 °F 8.6 °F 79% 30.48 in 2.0 mi NNE 9.2 mph - N/A Snow Light Snow